Tracking 31027 objects as of 19-Jul-2025
HD Live streaming from Space Station
objects crossing your sky now

USA 358

Track USA 358 now!
10-day predictions


NORAD ID: 59818
Int'l Code: 2024-096E
Perigee: 582.8 km
Apogee: 585.6 km
Inclination: 70.0 °
Period: 96.2 minutes
Semi major axis: 6955 km
RCS: Unknown
Launch date: May 22, 2024
Source: United States (US)
Launch site: AIR FORCE WESTERN TEST RANGE (AFWTR)
Your satellite tracking list
SPACEBEENZ-7
Track 1 satellite(s)




NASA's NSSDC Master Catalog

Two Line Element Set (TLE):
1 59818U 24096E   25190.89208565 0.00000000  00000-0  00000-0 0    05
2 59818  69.9920 107.3185 0002000 247.6866 112.3134 14.96714733    04
Source of the keplerian elements: McCants